Regional Weather Roundup
Issued by NWS Charleston, SC

Home | Current Version | Previous Version | Text Only | Print | Product List | Glossary On
Versions: 1 2 3 4 5 6 7 8 9 10 11 12 13 14 15 16 17 18 19 20 21 22 23 24 25 26 27 28 29 30 31 32 33 34 35 36 37 38 39 40 41 42 43 44 45 46
000
ASUS42 KCHS 281227
RWRCHS

REGIONAL WEATHER ROUNDUP
NATIONAL WEATHER SERVICE CHARLESTON SC
800 AM EDT TUE MAR 28 2017

NOTE: "FAIR" INDICATES FEW OR NO CLOUDS BELOW 12,000 FEET WITH NO
SIGNIFICANT WEATHER AND/OR OBSTRUCTIONS TO VISIBILITY.

NOT ALL STATIONS ARE QUALITY CONTROLLED. USE DATA WITH CAUTION...
ESPECIALLY DEWPOINT OBSERVATIONS.

SCZ027-030-031-034>040-042>050-281300-
...SOUTHEAST SOUTH CAROLINA...

CITY           SKY/WX    TMP DP  RH WIND       PRES   REMARKS
N CHARLESTON   PTCLDY    66  60  81 SW8       30.01R
6HR MIN TEMP:  61; 6HR MAX TEMP:  66;

WATERFRONT PRK   N/A     66  62  87 SW5       30.00R
JOHNS ISLAND   FAIR      66  63  88 S6        30.02S
PINOPOLIS        N/A     64  61  88 S5        29.90S
MONCKS CORNER  FAIR      63  59  88 SW6       30.00S
SUMMERVILLE    FAIR      63  61  94 S3        30.02R
BEAUFORT MCAS  PTCLDY    66  63  90 S7        30.01R
6HR MIN TEMP:  65; 6HR MAX TEMP:  67;

BEAUFORT ARPT  FAIR      66  61  82 SW6       30.01S
HILTON HEAD IS PTCLDY    68  63  83 SW12      30.02R
WALTERBORO     PTSUNNY   64  61  88 SW7       30.02R
ALLENDALE      PTSUNNY   64  59  82 VRB3      30.00R

...SOUTHERN MIDLANDS AND PEE DEE...

CITY           SKY/WX    TMP DP  RH WIND       PRES   REMARKS
GEORGETOWN     FAIR      64  59  82 SW7       30.02S
KINGSTREE      PTSUNNY   64  59  82 S7        29.99S
ORANGEBURG     PTCLDY    63  59  87 SW9       29.98R
6HR MIN TEMP:  62; 6HR MAX TEMP:  64;

BARNWELL       FAIR      64  61  88 S6        30.00R
AIKEN          FAIR      63  55  77 SW8       30.01R
MANNING        FAIR      63  59  88 SW5       30.00R
COLUMBIA       CLOUDY    63  56  78 W3        29.97R
6HR MIN TEMP:  63; 6HR MAX TEMP:  67;

SUMTER         MOCLDY    63  58  83 SW6       29.96R
6HR MIN TEMP:  62; 6HR MAX TEMP:  65;

FLORENCE       LGT RAIN  62  60  93 CALM      29.99R
6HR MIN TEMP:  60; 6HR MAX TEMP:  63; 6HR PCP: TRACE;

MYRTLE BEACH   PTCLDY    64  59  82 SW6       30.01R
N MYRTLE BEACH MOSUNNY   65  62  90 SW9       30.00R
6HR MIN TEMP:  63; 6HR MAX TEMP:  67;


$$

GAZ063-065-086>088-099>101-113>116-118-119-134>141-150-281300-
...SOUTHEAST GEORGIA...

CITY           SKY/WX    TMP DP  RH WIND       PRES   REMARKS
SAVANNAH ARPT  PTCLDY    65  58  78 SW8       30.02R
6HR MIN TEMP:  64; 6HR MAX TEMP:  67;

HUNTER AAF     CLEAR     64  63  94 SW5       30.00S
6HR MIN TEMP:  64; 6HR MAX TEMP:  67;

FORT STEWART   CLEAR     61  58  90 CALM      30.01R
6HR MIN TEMP:  60; 6HR MAX TEMP:  67; 6HR PCP: TRACE;

STATESBORO     CLEAR     65  61  86 SW6       30.02R
SYLVANIA       PTSUNNY  N/A N/A N/A W3        30.03R
CLAXTON        FAIR     N/A N/A N/A CALM      30.03R

...CSRA...CENTRAL AND FAR SOUTHEAST GEORGIA...

CITY           SKY/WX    TMP DP  RH WIND       PRES   REMARKS
THOMSON        PTCLDY    63  58  85 W6        30.03R
AUGUSTA-BUSH   CLOUDY    65  58  78 SW7       29.98R
6HR MIN TEMP:  64; 6HR MAX TEMP:  69;

AUGUSTA-DANIEL CLOUDY    65  55  70 SW6       29.99R
SWAINSBORO     FAIR      63  59  88 CALM      30.03R
VIDALIA        PTCLDY    63  59  88 S6        30.04R
EASTMAN        CLOUDY    62  62 100 CALM      30.06R
HAZLEHURST     FAIR      64  64 100 SW5       30.03R
ALMA           PTCLDY    59  58  96 S3        30.04R
6HR MIN TEMP:  59; 6HR MAX TEMP:  67;

WAYCROSS       CLEAR     66  64  92 SW5       30.05R
JESUP          FAIR      63  57  82 W5        30.05R
BAXLEY         FAIR      61  61 100 CALM      30.04R
BRUNSWICK      PTCLDY    66  63  88 SW9       30.05S
SAINT SIMONS   PTCLDY    65  60  84 SW7       30.04R
6HR MIN TEMP:  64; 6HR MAX TEMP:  68; 6HR PCP: TRACE;


$$

SCZ027-028-034-036>038-045-046-048>050-GAZ119-141-281300-
...LAKE AND SUPPLEMENTAL COASTAL OBSERVATIONS...

STATION/POSITION TIME  TEMP    WIND        PRES    WAVE   SWELL
                       AIR SEA DIR/SP/G            HT/PER HT/PER/DIR
                 (UTC) (F)     (DEG/KT/KT) (MB)    (FT/S) (FT/S/D)
WINYAH BAY       1145   65     230/  7     1016.0R
LAKE MURRAY      1150   62      CALM  /  1 1014.2S
ACE BASIN NERRS  1130   61        CALM     1016.0S
FORT PULASKI     1200   66 65  220/  5/  6 1016.9
SAPELO ISLAND    1200   65     200/  4     1017.0

$$

ANZ835-935-AMZ111-154-330-350-352-354-370-450-454-472-281300-
...C-MAN AND BUOY OBSERVATIONS...

STATION/POSITION TIME  TEMP    WIND        PRES    WAVE   SWELL
                       AIR SEA DIR/SP/G            HT/PER HT/PER/DIR
                 (UTC) (F)     (DEG/KT/KT) (MB)    (FT/S) (FT/S/D)
BUOY 41004       1150   71 70  240/ 14/ 16 1016.2R   6/10   5/120/10
BUOY 41008       1150   65 63  200/ 10/ 10 1016.6R   4/11   3/ 80/11
FOLLY BEACH CMAN 1200   64     220/  9/ 11 1017.1R
CAPERS NEARSHORE 1108   64     220/ 10/ 12 1015.9R
FRIPP NEARSHORE  1208   64 62  200/ 10/ 12 1016.2R


STATION/POSITION TIME  TEMP    WIND        PRES    WAVE   SWELL
                       AIR SEA DIR/SP/G            HT/PER HT/PER/DIR
                 (UTC) (F)     (DEG/KT/KT) (MB)    (FT/S) (FT/S/D)
5E ST. MARYS GA  1200      66                N/A     4/11   2/130/11
FRYING PAN BUOY  1210   73 75  240/ 17/ 19 1016.0
BUOY 41025       1150   71 74  240/ 17/ 19 1015.9R   5/10   5/150/10
CAPE LOOKOUT NC  1200   67     220/  5/  7 1015.8R
BUOY 41002       1150   68 72  310/  2/  4 1017.9R   6/ 9   7/110/ 9
BUOY 41010       NOT AVBL
ST AUGUSTINE FL  1200   64 68  240/  2/  3 1018.7R


$$




USA.gov is the U.S. government's official web portal to all federal, state and local government web resources and services.